Back to catalog

STARLINK-31648

AliveCommunicationsVLEO
NORAD 59266·PAYLOAD·🇺🇸 United States

Launched Mar 19, 2024 from Vandenberg Space Force Base

Loading…

Next Passes (next 24 hours)

TLE

FreshSource: CelesTrak SupGP

Epoch: Sep 14, 2026, 22:34 UTC

1 59266C 24050N   26257.94076389 -.00003759  00000+0 -11109-3 0  2574
2 59266  53.1611  21.3855 0001176  72.2419 216.0215 15.34386218    10

Track STARLINK-31648 in real time with AllMySat

Download on the App Store